Location: Clifton Park
(41.4873°N, 81.8024°W)
Time: 21:15:27
(UTC+00:00)

COSMOS 2455 - Pass Details

Date: 21 January 2020
Orbit: 902 x 907 km, 67.1° (Epoch: 17 February)

Event Time Altitude Azimuth Distance (km) Brightness Sun altitude
Exits shadow 09:49:11 13° 170° (S) 2,392 5.1 -33.3°
Maximum altitude 09:53:57 35° 109° (ESE) 1,427 4.2 -32.4°
Drops below altitude 10° 09:59:19 10° 46° (NE) 2,593 5.7 -31.4°
Sets 10:02:01 0° 38° (NE) 3,539 6.4 -30.9°
